| time (UTC) | temp F | wind direction | speed MPH | gust MPH | rain 1hr in | rain 24hr in | rain mn in | humidity % | barometer mb |
| 20260506062035 | 47 | 340 | 2.0 | 4.0 | 0.00 | 0.02 | 0.00 | 47 | 1016.1 |
| 20260506061532 | 47 | 338 | 1.0 | 4.0 | 0.00 | 0.02 | 0.00 | 47 | 1016.0 |
| 20260506061050 | 47 | 342 | 2.0 | 5.0 | 0.00 | 0.02 | 0.00 | 46 | 1015.9 |
| 20260506060602 | 47 | 356 | 3.0 | 5.0 | 0.00 | 0.02 | 0.00 | 46 | 1015.9 |
| 20260506051037 | 50 | 338 | 4.0 | 10.0 | 0.00 | 0.02 | 0.00 | 41 | 1015.4 |
| 20260506050557 | 50 | 329 | 3.0 | 7.0 | 0.00 | 0.02 | 0.00 | 40 | 1015.4 |
| 20260506045038 | 50 | 352 | 4.0 | 8.0 | 0.00 | 0.02 | 0.02 | 40 | 1015.2 |
| 20260506044535 | 50 | 321 | 3.0 | 8.0 | 0.00 | 0.02 | 0.02 | 41 | 1015.1 |
| 20260506044034 | 50 | 326 | 3.0 | 8.0 | 0.00 | 0.02 | 0.02 | 40 | 1015.2 |
| 20260506043532 | 50 | 359 | 5.0 | 8.0 | 0.00 | 0.02 | 0.02 | 41 | 1015.1 |
| 20260506043112 | 50 | 330 | 2.0 | 8.0 | 0.00 | 0.02 | 0.02 | 41 | 1015.1 |
| 20260506042535 | 50 | 358 | 3.0 | 8.0 | 0.00 | 0.02 | 0.02 | 40 | 1015.1 |
| 20260506042035 | 50 | 316 | 3.0 | 7.0 | 0.00 | 0.02 | 0.02 | 40 | 1015.1 |
| 20260506041534 | 50 | 334 | 3.0 | 6.0 | 0.00 | 0.02 | 0.02 | 41 | 1015.0 |
| 20260506041052 | 50 | 315 | 2.0 | 9.0 | 0.00 | 0.02 | 0.02 | 41 | 1015.0 |
| 20260506040559 | 50 | 359 | 3.0 | 9.0 | 0.00 | 0.02 | 0.02 | 43 | 1014.9 |
| 20260506040040 | 50 | 330 | 2.0 | 7.0 | 0.00 | 0.02 | 0.02 | 42 | 1014.9 |
| 20260506035537 | 50 | 338 | 3.0 | 7.0 | 0.00 | 0.02 | 0.02 | 43 | 1014.9 |
| 20260506035034 | 50 | 350 | 4.0 | 7.0 | 0.00 | 0.02 | 0.02 | 41 | 1014.9 |
| 20260506034552 | 50 | 328 | 2.0 | 7.0 | 0.00 | 0.02 | 0.02 | 42 | 1014.9 |
| 20260506034048 | 51 | 328 | 3.0 | 7.0 | 0.00 | 0.02 | 0.02 | 41 | 1014.9 |
| 20260506033605 | 51 | 322 | 3.0 | 6.0 | 0.00 | 0.02 | 0.02 | 41 | 1014.9 |
| 20260506033043 | 51 | 316 | 3.0 | 5.0 | 0.00 | 0.02 | 0.02 | 42 | 1014.8 |
| 20260506032540 | 51 | 310 | 3.0 | 5.0 | 0.00 | 0.02 | 0.02 | 40 | 1014.8 |
| 20260506032038 | 51 | 13 | 3.0 | 6.0 | 0.00 | 0.02 | 0.02 | 40 | 1014.6 |
| 20260506031537 | 51 | 350 | 3.0 | 6.0 | 0.00 | 0.02 | 0.02 | 40 | 1014.6 |
| 20260506031035 | 51 | 3 | 2.0 | 6.0 | 0.00 | 0.02 | 0.02 | 42 | 1014.6 |
| 20260506030604 | 51 | 3 | 2.0 | 6.0 | 0.00 | 0.02 | 0.02 | 40 | 1014.5 |
| 20260506030046 | 51 | 301 | 3.0 | 6.0 | 0.00 | 0.02 | 0.02 | 39 | 1014.4 |
| 20260506025544 | 52 | 307 | 2.0 | 11.0 | 0.00 | 0.02 | 0.02 | 39 | 1014.4 |
| 20260506025042 | 52 | 336 | 3.0 | 11.0 | 0.00 | 0.02 | 0.02 | 39 | 1014.3 |
| 20260506024539 | 52 | 350 | 5.0 | 10.0 | 0.00 | 0.02 | 0.02 | 38 | 1014.2 |
| 20260506024037 | 52 | 349 | 5.0 | 10.0 | 0.00 | 0.02 | 0.02 | 38 | 1014.2 |
| 20260506023534 | 52 | 342 | 4.0 | 6.0 | 0.00 | 0.02 | 0.02 | 39 | 1014.0 |
| 20260506023112 | 52 | 2 | 3.0 | 8.0 | 0.00 | 0.02 | 0.02 | 38 | 1014.0 |
| 20260506022548 | 52 | 330 | 5.0 | 8.0 | 0.00 | 0.02 | 0.02 | 38 | 1014.0 |
| 20260506022046 | 52 | 333 | 4.0 | 7.0 | 0.00 | 0.02 | 0.02 | 38 | 1013.8 |
| 20260506021543 | 52 | 10 | 3.0 | 12.0 | 0.00 | 0.02 | 0.02 | 37 | 1013.8 |
| 20260506021042 | 52 | 313 | 5.0 | 12.0 | 0.00 | 0.02 | 0.02 | 37 | 1013.8 |
| 20260506020610 | 53 | 301 | 6.0 | 11.0 | 0.00 | 0.02 | 0.02 | 38 | 1013.8 |
| 20260506020048 | 53 | 342 | 3.0 | 11.0 | 0.00 | 0.02 | 0.02 | 38 | 1013.7 |
| 20260506015547 | 53 | 347 | 4.0 | 11.0 | 0.00 | 0.02 | 0.02 | 38 | 1013.7 |
| 20260506015045 | 53 | 349 | 5.0 | 11.0 | 0.00 | 0.02 | 0.02 | 37 | 1013.5 |
| 20260506014544 | 53 | 359 | 4.0 | 9.0 | 0.00 | 0.02 | 0.02 | 38 | 1013.5 |
| 20260506014045 | 53 | 345 | 4.0 | 11.0 | 0.00 | 0.02 | 0.02 | 38 | 1013.4 |
| 20260506013542 | 53 | 359 | 5.0 | 11.0 | 0.00 | 0.02 | 0.02 | 38 | 1013.4 |
| 20260506013100 | 53 | 304 | 4.0 | 12.0 | 0.00 | 0.02 | 0.02 | 37 | 1013.3 |
| 20260506012537 | 53 | 353 | 5.0 | 12.0 | 0.00 | 0.02 | 0.02 | 38 | 1013.2 |
| 20260506012035 | 53 | 360 | 5.0 | 17.0 | 0.00 | 0.02 | 0.02 | 37 | 1013.3 |
| 20260506011552 | 53 | 334 | 5.0 | 17.0 | 0.00 | 0.02 | 0.02 | 38 | 1013.1 |
| 20260506011050 | 53 | 359 | 5.0 | 14.0 | 0.00 | 0.02 | 0.02 | 38 | 1013.0 |
| 20260506010619 | 53 | 328 | 7.0 | 14.0 | 0.00 | 0.02 | 0.02 | 38 | 1013.1 |
| 20260506010036 | 54 | 312 | 4.0 | 9.0 | 0.00 | 0.02 | 0.02 | 39 | 1013.0 |
| 20260506005534 | 54 | 355 | 4.0 | 11.0 | 0.00 | 0.02 | 0.02 | 38 | 1013.0 |
| 20260506005051 | 54 | 330 | 5.0 | 11.0 | 0.00 | 0.02 | 0.02 | 38 | 1013.0 |
| 20260506004547 | 54 | 325 | 5.0 | 12.0 | 0.00 | 0.02 | 0.02 | 37 | 1012.9 |
| 20260506004043 | 54 | 332 | 5.0 | 12.0 | 0.00 | 0.02 | 0.02 | 36 | 1012.9 |
| 20260506003048 | 54 | 349 | 4.0 | 12.0 | 0.00 | 0.02 | 0.02 | 37 | 1012.7 |
| 20260506002608 | 54 | 355 | 6.0 | 11.0 | 0.00 | 0.02 | 0.02 | 37 | 1012.7 |
| 20260506002107 | 54 | 302 | 8.0 | 11.0 | 0.00 | 0.02 | 0.02 | 37 | 1012.7 |
| 20260506001604 | 54 | 305 | 2.0 | 12.0 | 0.00 | 0.02 | 0.02 | 37 | 1012.8 |
| 20260506001041 | 55 | 347 | 4.0 | 12.0 | 0.00 | 0.02 | 0.02 | 36 | 1012.8 |
| 20260506000628 | 55 | 333 | 6.0 | 15.0 | 0.00 | 0.02 | 0.02 | 36 | 1012.8 |
| 20260506000046 | 55 | 1 | 7.0 | 15.0 | 0.00 | 0.02 | 0.02 | 35 | 1012.7 |
| 20260505235545 | 55 | 356 | 4.0 | 15.0 | 0.00 | 0.02 | 0.02 | 36 | 1012.6 |
| 20260505235105 | 55 | 314 | 6.0 | 15.0 | 0.00 | 0.02 | 0.02 | 37 | 1012.6 |
| 20260505234540 | 55 | 325 | 4.0 | 13.0 | 0.00 | 0.02 | 0.02 | 37 | 1012.7 |
| 20260505234042 | 56 | 359 | 5.0 | 13.0 | 0.00 | 0.02 | 0.02 | 37 | 1012.6 |
| 20260505233540 | 56 | 328 | 5.0 | 14.0 | 0.00 | 0.02 | 0.02 | 38 | 1012.5 |
| 20260505233039 | 56 | 321 | 4.0 | 14.0 | 0.00 | 0.02 | 0.02 | 36 | 1012.4 |
| 20260505232557 | 56 | 302 | 5.0 | 11.0 | 0.00 | 0.02 | 0.02 | 36 | 1012.3 |
| 20260505232035 | 56 | 306 | 4.0 | 11.0 | 0.00 | 0.02 | 0.02 | 36 | 1012.4 |
| 20260505231533 | 56 | 324 | 5.0 | 11.0 | 0.00 | 0.02 | 0.02 | 36 | 1012.3 |
| 20260505231051 | 56 | 338 | 3.0 | 11.0 | 0.00 | 0.02 | 0.02 | 37 | 1012.3 |
| 20260505230559 | 56 | 335 | 4.0 | 10.0 | 0.00 | 0.02 | 0.02 | 34 | 1012.4 |
| 20260505230038 | 56 | 321 | 4.0 | 12.0 | 0.00 | 0.02 | 0.02 | 35 | 1012.4 |
| 20260505225535 | 57 | 340 | 6.0 | 12.0 | 0.00 | 0.02 | 0.02 | 36 | 1012.4 |
| 20260505225032 | 57 | 337 | 4.0 | 10.0 | 0.00 | 0.02 | 0.02 | 37 | 1012.3 |
| 20260505224549 | 57 | 345 | 3.0 | 10.0 | 0.00 | 0.02 | 0.02 | 38 | 1012.2 |
| 20260505224048 | 57 | 342 | 3.0 | 10.0 | 0.00 | 0.02 | 0.02 | 37 | 1012.3 |
| 20260505223609 | 57 | 321 | 5.0 | 10.0 | 0.00 | 0.02 | 0.02 | 36 | 1012.3 |
| 20260505223046 | 57 | 332 | 5.0 | 10.0 | 0.00 | 0.02 | 0.02 | 37 | 1012.4 |
| 20260505222545 | 57 | 307 | 6.0 | 10.0 | 0.00 | 0.02 | 0.02 | 36 | 1012.2 |
| 20260505222038 | 57 | 338 | 4.0 | 10.0 | 0.00 | 0.02 | 0.02 | 37 | 1012.3 |
| 20260505221539 | 57 | 336 | 2.0 | 10.0 | 0.00 | 0.02 | 0.02 | 39 | 1012.1 |
| 20260505221036 | 57 | 330 | 4.0 | 8.0 | 0.00 | 0.02 | 0.02 | 38 | 1012.2 |
| 20260505220604 | 57 | 320 | 3.0 | 7.0 | 0.00 | 0.02 | 0.02 | 38 | 1012.2 |
| 20260505220042 | 57 | 332 | 2.0 | 7.0 | 0.00 | 0.02 | 0.02 | 41 | 1012.2 |
| 20260505215536 | 57 | 322 | 3.0 | 7.0 | 0.00 | 0.02 | 0.02 | 39 | 1012.2 |
| 20260505215034 | 57 | 286 | 4.0 | 13.0 | 0.00 | 0.02 | 0.02 | 38 | 1012.3 |
| 20260505214551 | 57 | 302 | 4.0 | 11.0 | 0.00 | 0.02 | 0.02 | 36 | 1012.3 |
| 20260505214110 | 57 | 344 | 4.0 | 8.0 | 0.00 | 0.02 | 0.02 | 38 | 1012.3 |
| 20260505213548 | 57 | 359 | 4.0 | 10.0 | 0.00 | 0.02 | 0.02 | 38 | 1012.4 |
| 20260505213047 | 57 | 309 | 5.0 | 19.0 | 0.00 | 0.02 | 0.02 | 38 | 1012.5 |
| 20260505212545 | 57 | 335 | 8.0 | 19.0 | 0.00 | 0.02 | 0.02 | 37 | 1012.5 |
| 20260505212105 | 57 | 312 | 5.0 | 11.0 | 0.00 | 0.02 | 0.02 | 37 | 1012.6 |
| 20260505211542 | 57 | 297 | 4.0 | 12.0 | 0.00 | 0.02 | 0.02 | 37 | 1012.5 |
| 20260505211102 | 57 | 330 | 7.0 | 13.0 | 0.00 | 0.02 | 0.02 | 37 | 1012.5 |
| 20260505210552 | 57 | 314 | 5.0 | 13.0 | 0.00 | 0.02 | 0.02 | 38 | 1012.5 |
| 20260505210032 | 58 | 337 | 5.0 | 9.0 | 0.00 | 0.02 | 0.02 | 37 | 1012.6 |
| 20260505205611 | 58 | 337 | 4.0 | 9.0 | 0.00 | 0.02 | 0.02 | 37 | 1012.6 |
| 20260505205048 | 58 | 339 | 4.0 | 7.0 | 0.00 | 0.02 | 0.02 | 39 | 1012.6 |
| 20260505204545 | 58 | 292 | 3.0 | 8.0 | 0.00 | 0.02 | 0.02 | 36 | 1012.5 |
| 20260505204044 | 57 | 306 | 4.0 | 15.0 | 0.00 | 0.02 | 0.02 | 36 | 1012.7 |
| 20260505203601 | 58 | 310 | 6.0 | 15.0 | 0.00 | 0.02 | 0.02 | 37 | 1012.7 |
| 20260505203041 | 58 | 330 | 5.0 | 12.0 | 0.00 | 0.02 | 0.02 | 37 | 1012.6 |
| 20260505202538 | 58 | 327 | 6.0 | 15.0 | 0.00 | 0.02 | 0.02 | 39 | 1012.7 |
| 20260505202036 | 58 | 311 | 5.0 | 12.0 | 0.00 | 0.02 | 0.02 | 37 | 1012.7 |
| 20260505201535 | 58 | 359 | 5.0 | 14.0 | 0.00 | 0.02 | 0.02 | 39 | 1012.9 |
| 20260505201111 | 58 | 302 | 5.0 | 14.0 | 0.00 | 0.02 | 0.02 | 36 | 1012.9 |
| 20260505200600 | 58 | 335 | 6.0 | 12.0 | 0.00 | 0.02 | 0.02 | 36 | 1012.8 |
| 20260505195541 | 58 | 264 | 4.0 | 11.0 | 0.00 | 0.02 | 0.02 | 36 | 1012.9 |
| 20260505195038 | 58 | 314 | 5.0 | 13.0 | 0.00 | 0.02 | 0.02 | 38 | 1013.0 |
| 20260505194555 | 58 | 31 | 5.0 | 13.0 | 0.00 | 0.02 | 0.02 | 39 | 1013.0 |
| 20260505194050 | 57 | 316 | 6.0 | 9.0 | 0.00 | 0.02 | 0.02 | 39 | 1013.0 |
| 20260505193548 | 57 | 318 | 4.0 | 9.0 | 0.00 | 0.02 | 0.02 | 38 | 1013.1 |
| 20260505193046 | 57 | 293 | 5.0 | 12.0 | 0.00 | 0.02 | 0.02 | 37 | 1013.2 |
| 20260505192544 | 58 | 336 | 6.0 | 12.0 | 0.00 | 0.02 | 0.02 | 39 | 1013.2 |
| 20260505192041 | 57 | 323 | 3.0 | 11.0 | 0.00 | 0.02 | 0.02 | 42 | 1013.1 |
| 20260505191539 | 57 | 308 | 6.0 | 12.0 | 0.00 | 0.02 | 0.02 | 38 | 1013.2 |
| 20260505191036 | 57 | 359 | 7.0 | 12.0 | 0.00 | 0.02 | 0.02 | 38 | 1013.2 |
| 20260505190606 | 58 | 324 | 6.0 | 11.0 | 0.00 | 0.02 | 0.02 | 38 | 1013.2 |
| 20260505190044 | 57 | 339 | 4.0 | 7.0 | 0.00 | 0.02 | 0.02 | 41 | 1013.3 |
| 20260505185605 | 57 | 328 | 3.0 | 6.0 | 0.00 | 0.02 | 0.02 | 44 | 1013.3 |
| 20260505185039 | 57 | 352 | 1.0 | 3.0 | 0.00 | 0.02 | 0.02 | 43 | 1013.4 |
| 20260505184556 | 56 | 351 | 1.0 | 4.0 | 0.00 | 0.02 | 0.02 | 47 | 1013.4 |
| 20260505184038 | 56 | 352 | 0.0 | 5.0 | 0.00 | 0.02 | 0.02 | 44 | 1013.4 |
| 20260505183535 | 56 | 354 | 3.0 | 5.0 | 0.00 | 0.02 | 0.02 | 45 | 1013.6 |
| 20260505183032 | 56 | 268 | 3.0 | 5.0 | 0.00 | 0.02 | 0.02 | 44 | 1013.6 |
| 20260505182550 | 56 | 354 | 3.0 | 5.0 | 0.00 | 0.02 | 0.02 | 45 | 1013.7 |
| 20260505182049 | 57 | 272 | 2.0 | 6.0 | 0.00 | 0.02 | 0.02 | 43 | 1013.8 |
| 20260505181546 | 58 | 345 | 3.0 | 6.0 | 0.00 | 0.02 | 0.02 | 47 | 1013.7 |
| 20260505181044 | 57 | 342 | 3.0 | 10.0 | 0.00 | 0.02 | 0.02 | 48 | 1013.8 |
| 20260505180553 | 56 | 334 | 3.0 | 10.0 | 0.00 | 0.02 | 0.02 | 49 | 1013.7 |
| 20260505180051 | 56 | 359 | 4.0 | 9.0 | 0.00 | 0.02 | 0.02 | 45 | 1013.9 |
| 20260505175609 | 56 | 340 | 5.0 | 9.0 | 0.00 | 0.02 | 0.02 | 47 | 1013.7 |
| 20260505175046 | 56 | 328 | 3.0 | 6.0 | 0.00 | 0.02 | 0.02 | 46 | 1013.6 |
| 20260505174544 | 56 | 319 | 2.0 | 8.0 | 0.00 | 0.02 | 0.02 | 47 | 1013.7 |
| 20260505174042 | 55 | 359 | 4.0 | 8.0 | 0.00 | 0.02 | 0.02 | 47 | 1013.8 |
| 20260505173539 | 55 | 310 | 4.0 | 8.0 | 0.00 | 0.02 | 0.02 | 44 | 1013.8 |
| 20260505173037 | 55 | 346 | 4.0 | 12.0 | 0.00 | 0.02 | 0.02 | 47 | 1014.0 |
| 20260505172534 | 55 | 314 | 6.0 | 12.0 | 0.00 | 0.02 | 0.02 | 45 | 1014.0 |
| 20260505172036 | 55 | 315 | 3.0 | 7.0 | 0.00 | 0.02 | 0.02 | 48 | 1014.0 |
| 20260505171534 | 54 | 318 | 2.0 | 7.0 | 0.00 | 0.02 | 0.02 | 48 | 1014.0 |
| 20260505171033 | 54 | 331 | 5.0 | 8.0 | 0.00 | 0.02 | 0.02 | 50 | 1014.1 |
| 20260505170601 | 54 | 317 | 3.0 | 8.0 | 0.00 | 0.02 | 0.02 | 49 | 1014.1 |
| 20260505170041 | 53 | 291 | 3.0 | 7.0 | 0.00 | 0.02 | 0.02 | 47 | 1014.1 |
| 20260505165559 | 53 | 325 | 3.0 | 7.0 | 0.00 | 0.02 | 0.02 | 52 | 1014.0 |
| 20260505165056 | 53 | 301 | 4.0 | 6.0 | 0.00 | 0.02 | 0.02 | 52 | 1014.1 |
| 20260505164531 | 53 | 326 | 2.0 | 6.0 | 0.00 | 0.02 | 0.02 | 56 | 1014.0 |
| 20260505164049 | 52 | 338 | 4.0 | 6.0 | 0.00 | 0.02 | 0.02 | 55 | 1014.2 |
| 20260505163547 | 52 | 335 | 2.0 | 7.0 | 0.00 | 0.02 | 0.02 | 56 | 1014.0 |
| 20260505163045 | 52 | 313 | 4.0 | 7.0 | 0.00 | 0.02 | 0.02 | 58 | 1013.9 |
| 20260505162543 | 52 | 314 | 3.0 | 6.0 | 0.00 | 0.02 | 0.02 | 57 | 1013.7 |
| 20260505162041 | 52 | 332 | 3.0 | 6.0 | 0.00 | 0.02 | 0.02 | 58 | 1013.8 |
| 20260505161558 | 52 | 336 | 3.0 | 6.0 | 0.00 | 0.02 | 0.02 | 58 | 1013.7 |
| 20260505161036 | 51 | 293 | 2.0 | 6.0 | 0.00 | 0.02 | 0.02 | 61 | 1013.7 |
| 20260505160606 | 51 | 308 | 2.0 | 6.0 | 0.00 | 0.02 | 0.02 | 60 | 1013.7 |
| 20260505153032 | 51 | 313 | 2.0 | 5.0 | 0.00 | 0.02 | 0.02 | 59 | 1013.6 |
| 20260505152550 | 51 | 326 | 2.0 | 4.0 | 0.00 | 0.02 | 0.02 | 60 | 1013.5 |
| 20260505152047 | 51 | 330 | 1.0 | 4.0 | 0.00 | 0.02 | 0.02 | 61 | 1013.5 |
| 20260505151545 | 51 | 330 | 2.0 | 4.0 | 0.00 | 0.02 | 0.02 | 60 | 1013.4 |
| 20260505151043 | 51 | 327 | 2.0 | 4.0 | 0.00 | 0.02 | 0.02 | 59 | 1013.1 |
| 20260505150551 | 51 | 331 | 1.0 | 3.0 | 0.00 | 0.02 | 0.02 | 59 | 1013.1 |
| 20260505140558 | 50 | 328 | 1.0 | 3.0 | 0.00 | 0.02 | 0.02 | 61 | 1012.9 |
| 20260505125033 | 48 | 311 | 1.0 | 4.0 | 0.00 | 0.02 | 0.02 | 72 | 1012.0 |
| 20260505124551 | 48 | 311 | 1.0 | 4.0 | 0.00 | 0.02 | 0.02 | 74 | 1011.9 |
| 20260505124110 | 48 | 308 | 1.0 | 3.0 | 0.00 | 0.02 | 0.02 | 75 | 1011.8 |
| 20260505123607 | 48 | 308 | 1.0 | 3.0 | 0.00 | 0.02 | 0.02 | 77 | 1011.6 |
| 20260505123105 | 47 | 307 | 2.0 | 3.0 | 0.00 | 0.02 | 0.02 | 79 | 1011.4 |
| 20260505122541 | 47 | 307 | 2.0 | 3.0 | 0.00 | 0.02 | 0.02 | 77 | 1011.3 |
| 20260505122102 | 47 | 307 | 1.0 | 2.0 | 0.00 | 0.02 | 0.02 | 80 | 1011.3 |
| 20260505121538 | 47 | 307 | 1.0 | 2.0 | 0.00 | 0.02 | 0.02 | 78 | 1011.3 |
| 20260505121041 | 47 | 307 | 0.0 | 1.0 | 0.00 | 0.02 | 0.02 | 79 | 1011.1 |
| 20260505120549 | 47 | 307 | 0.0 | 0.0 | 0.00 | 0.02 | 0.02 | 77 | 1011.1 |
| 20260505120049 | 47 | 307 | 0.0 | 0.0 | 0.00 | 0.02 | 0.02 | 78 | 1011.1 |
| 20260505115546 | 47 | 307 | 0.0 | 1.0 | 0.00 | 0.02 | 0.02 | 78 | 1011.0 |
| 20260505115044 | 47 | 307 | 0.0 | 1.0 | 0.00 | 0.02 | 0.02 | 79 | 1010.8 |
| 20260505114539 | 46 | 307 | 0.0 | 0.0 | 0.00 | 0.02 | 0.02 | 80 | 1010.8 |
| 20260505114036 | 46 | 307 | 0.0 | 2.0 | 0.00 | 0.02 | 0.02 | 80 | 1010.7 |
| 20260505113533 | 46 | 307 | 1.0 | 2.0 | 0.00 | 0.02 | 0.02 | 82 | 1010.6 |
| 20260505113032 | 46 | 307 | 0.0 | 2.0 | 0.00 | 0.02 | 0.02 | 83 | 1010.6 |
| 20260505112550 | 46 | 307 | 0.0 | 1.0 | 0.00 | 0.02 | 0.02 | 83 | 1010.6 |
| 20260505112047 | 46 | 307 | 0.0 | 2.0 | 0.00 | 0.02 | 0.02 | 83 | 1010.6 |
| 20260505111544 | 46 | 307 | 0.0 | 2.0 | 0.00 | 0.02 | 0.02 | 85 | 1010.7 |
| 20260505111039 | 46 | 307 | 0.0 | 1.0 | 0.00 | 0.02 | 0.02 | 87 | 1010.7 |
| 20260505110628 | 46 | 307 | 0.0 | 1.0 | 0.00 | 0.02 | 0.02 | 88 | 1010.8 |
| 20260505102105 | 47 | 307 | 0.0 | 0.0 | 0.00 | 0.02 | 0.02 | 88 | 1011.0 |
| 20260505101542 | 47 | 307 | 0.0 | 0.0 | 0.00 | 0.02 | 0.02 | 87 | 1011.0 |
| 20260505101039 | 47 | 307 | 0.0 | 0.0 | 0.00 | 0.02 | 0.02 | 87 | 1011.0 |
| 20260505100608 | 47 | 307 | 0.0 | 0.0 | 0.00 | 0.02 | 0.02 | 87 | 1011.1 |
| 20260505100110 | 47 | 307 | 0.0 | 0.0 | 0.00 | 0.02 | 0.02 | 87 | 1011.1 |
| 20260505095545 | 47 | 307 | 0.0 | 0.0 | 0.00 | 0.02 | 0.02 | 87 | 1011.0 |
| 20260505095043 | 47 | 307 | 0.0 | 0.0 | 0.00 | 0.02 | 0.02 | 87 | 1011.1 |
| 20260505094541 | 47 | 307 | 0.0 | 0.0 | 0.00 | 0.02 | 0.02 | 87 | 1011.1 |
| 20260505094038 | 47 | 307 | 0.0 | 0.0 | 0.00 | 0.02 | 0.02 | 86 | 1011.0 |
| 20260505093535 | 47 | 307 | 0.0 | 0.0 | 0.00 | 0.02 | 0.02 | 86 | 1010.8 |
| 20260505093033 | 47 | 307 | 0.0 | 0.0 | 0.00 | 0.02 | 0.02 | 86 | 1010.7 |
| 20260505092550 | 47 | 307 | 0.0 | 0.0 | 0.00 | 0.02 | 0.02 | 86 | 1010.7 |
| 20260505092048 | 47 | 307 | 0.0 | 0.0 | 0.00 | 0.02 | 0.02 | 85 | 1010.5 |
| 20260505091545 | 48 | 307 | 0.0 | 2.0 | 0.00 | 0.02 | 0.02 | 85 | 1010.4 |
| 20260505091041 | 48 | 307 | 1.0 | 2.0 | 0.00 | 0.02 | 0.02 | 85 | 1010.3 |
| 20260505090549 | 48 | 307 | 1.0 | 2.0 | 0.00 | 0.02 | 0.02 | 85 | 1010.1 |
| 20260505090032 | 48 | 307 | 1.0 | 2.0 | 0.00 | 0.02 | 0.02 | 85 | 1010.1 |
| 20260505085549 | 48 | 307 | 0.0 | 2.0 | 0.00 | 0.02 | 0.02 | 86 | 1010.0 |
| 20260505085108 | 48 | 307 | 0.0 | 0.0 | 0.00 | 0.02 | 0.02 | 85 | 1010.1 |
| 20260505084606 | 48 | 307 | 0.0 | 0.0 | 0.00 | 0.02 | 0.02 | 85 | 1010.2 |
| 20260505084042 | 48 | 307 | 0.0 | 0.0 | 0.00 | 0.02 | 0.02 | 85 | 1010.1 |
| 20260505083539 | 48 | 307 | 0.0 | 1.0 | 0.00 | 0.02 | 0.02 | 84 | 1010.1 |
| 20260505083036 | 48 | 307 | 0.0 | 3.0 | 0.00 | 0.02 | 0.02 | 84 | 1010.0 |
| 20260505082534 | 48 | 307 | 1.0 | 3.0 | 0.01 | 0.02 | 0.02 | 86 | 1010.0 |
| 20260505081539 | 47 | 323 | 0.0 | 0.0 | 0.01 | 0.02 | 0.02 | 86 | 1009.6 |
| 20260505081036 | 47 | 323 | 0.0 | 1.0 | 0.01 | 0.02 | 0.02 | 86 | 1009.5 |
| 20260505080606 | 47 | 323 | 0.0 | 1.0 | 0.01 | 0.02 | 0.02 | 86 | 1009.4 |
| 20260505080107 | 47 | 323 | 0.0 | 1.0 | 0.01 | 0.02 | 0.02 | 86 | 1009.3 |
| 20260505075544 | 47 | 323 | 1.0 | 1.0 | 0.01 | 0.02 | 0.02 | 86 | 1009.4 |
| 20260505075042 | 47 | 323 | 0.0 | 0.0 | 0.02 | 0.02 | 0.02 | 86 | 1009.1 |
| 20260505074542 | 47 | 323 | 0.0 | 0.0 | 0.02 | 0.02 | 0.02 | 85 | 1009.2 |
| 20260505074039 | 47 | 323 | 0.0 | 0.0 | 0.02 | 0.02 | 0.02 | 85 | 1009.4 |
| 20260505073556 | 47 | 323 | 0.0 | 0.0 | 0.02 | 0.02 | 0.02 | 84 | 1009.6 |
| 20260505073032 | 47 | 323 | 0.0 | 1.0 | 0.02 | 0.02 | 0.02 | 84 | 1009.4 |
| 20260505072534 | 47 | 323 | 0.0 | 1.0 | 0.01 | 0.01 | 0.01 | 82 | 1009.1 |
| 20260505072031 | 48 | 323 | 0.0 | 2.0 | 0.01 | 0.01 | 0.01 | 82 | 1009.3 |
| 20260505071530 | 48 | 323 | 0.0 | 2.0 | 0.01 | 0.01 | 0.01 | 81 | 1009.1 |
| 20260505071047 | 48 | 323 | 1.0 | 2.0 | 0.01 | 0.01 | 0.01 | 79 | 1009.4 |
| 20260505070556 | 48 | 323 | 0.0 | 2.0 | 0.01 | 0.01 | 0.01 | 78 | 1009.4 |
| 20260505070054 | 48 | 323 | 0.0 | 2.0 | 0.01 | 0.01 | 0.01 | 76 | 1009.1 |
| 20260505065532 | 48 | 323 | 0.0 | 2.0 | 0.01 | 0.01 | 0.01 | 75 | 1009.0 |
| 20260505065048 | 49 | 323 | 0.0 | 1.0 | 0.00 | 0.00 | 0.00 | 74 | 1009.0 |
| 20260505064612 | 49 | 323 | 0.0 | 1.0 | 0.00 | 0.00 | 0.00 | 73 | 1009.1 |
| 20260505064108 | 49 | 323 | 0.0 | 1.0 | 0.00 | 0.00 | 0.00 | 71 | 1009.2 |